Time,TemperatureF,DewpointF,PressureIn,WindDirection,WindDirectionDegrees,WindSpeedMPH,WindSpeedGustMPH,Humidity,HourlyPrecipIn,Conditions,Clouds,dailyrainin,SoftwareType,DateUTC
2013-04-04 00:02:00,32.0,24.0,30.30,East,81,10.0,14.0,73,0.00,,,0.00,,2013-04-04 05:02:00,
2013-04-04 00:13:00,32.0,24.0,30.30,East,81,10.0,14.0,73,0.00,,,0.00,,2013-04-04 05:13:00,
2013-04-04 00:23:00,32.0,24.0,30.30,East,79,12.0,15.0,73,0.00,,,0.00,,2013-04-04 05:23:00,
2013-04-04 00:32:00,32.0,24.0,30.29,East,79,10.0,16.0,73,0.00,,,0.00,,2013-04-04 05:32:00,
2013-04-04 00:42:00,32.0,24.0,30.29,East,79,10.0,16.0,73,0.00,,,0.00,,2013-04-04 05:42:00,
2013-04-04 00:52:00,32.0,25.0,30.29,ENE,77,9.0,14.0,75,0.00,,,0.00,,2013-04-04 05:52:00,
2013-04-04 01:02:00,31.0,24.0,30.29,East,84,9.0,13.0,75,0.00,,,0.00,,2013-04-04 06:02:00,
2013-04-04 01:12:00,31.0,24.0,30.29,East,84,9.0,13.0,75,0.00,,,0.00,,2013-04-04 06:12:00,
2013-04-04 01:22:00,31.0,25.0,30.29,East,90,8.0,12.0,78,0.00,,,0.00,,2013-04-04 06:22:00,
2013-04-04 01:32:00,30.0,25.0,30.29,East,85,10.0,14.0,80,0.00,,,0.00,,2013-04-04 06:32:00,
2013-04-04 01:42:00,30.0,25.0,30.29,East,85,10.0,14.0,80,0.00,,,0.00,,2013-04-04 06:42:00,
2013-04-04 01:52:00,30.0,25.0,30.28,East,86,8.0,14.0,80,0.00,,,0.00,,2013-04-04 06:52:00,
2013-04-04 02:02:00,30.0,25.0,30.28,East,95,9.0,14.0,81,0.00,,,0.00,,2013-04-04 07:02:00,
2013-04-04 02:12:00,30.0,25.0,30.28,East,95,9.0,14.0,81,0.00,,,0.00,,2013-04-04 07:12:00,
2013-04-04 02:22:00,30.0,25.0,30.28,ESE,103,8.0,13.0,81,0.00,,,0.00,,2013-04-04 07:22:00,
2013-04-04 02:32:00,29.0,24.0,30.27,East,95,3.0,7.0,82,0.00,,,0.00,,2013-04-04 07:32:00,
2013-04-04 02:43:00,29.0,24.0,30.27,East,95,3.0,7.0,82,0.00,,,0.00,,2013-04-04 07:43:00,
2013-04-04 02:52:00,29.0,25.0,30.26,ESE,107,3.0,6.0,83,0.00,,,0.00,,2013-04-04 07:52:00,
2013-04-04 03:02:00,29.0,24.0,30.25,East,86,0.0,6.0,82,0.00,,,0.00,,2013-04-04 08:02:00,
2013-04-04 03:12:00,29.0,24.0,30.25,East,86,0.0,6.0,82,0.00,,,0.00,,2013-04-04 08:12:00,
2013-04-04 03:22:00,29.0,25.0,30.25,East,86,0.0,0.0,83,0.00,,,0.00,,2013-04-04 08:22:00,
2013-04-04 03:32:00,29.0,25.0,30.24,ESE,111,1.0,5.0,84,0.00,,,0.00,,2013-04-04 08:32:00,
2013-04-04 03:43:00,29.0,25.0,30.24,ESE,111,1.0,5.0,84,0.00,,,0.00,,2013-04-04 08:43:00,
2013-04-04 03:52:00,29.0,25.0,30.24,SE,136,2.0,6.0,84,0.00,,,0.00,,2013-04-04 08:52:00,
2013-04-04 04:02:00,28.0,24.0,30.24,SE,142,3.0,5.0,85,0.00,,,0.00,,2013-04-04 09:02:00,
2013-04-04 04:12:00,28.0,24.0,30.24,SE,142,3.0,5.0,85,0.00,,,0.00,,2013-04-04 09:12:00,
2013-04-04 04:22:00,28.0,24.0,30.24,SE,125,2.0,6.0,85,0.00,,,0.00,,2013-04-04 09:22:00,
2013-04-04 04:33:00,29.0,25.0,30.23,East,101,3.0,7.0,84,0.00,,,0.00,,2013-04-04 09:33:00,
2013-04-04 04:43:00,29.0,25.0,30.23,East,101,3.0,7.0,84,0.00,,,0.00,,2013-04-04 09:43:00,
2013-04-04 04:53:00,28.0,24.0,30.23,East,83,1.0,5.0,84,0.00,,,0.00,,2013-04-04 09:53:00,
2013-04-04 05:04:00,28.0,24.0,30.22,ESE,122,3.0,6.0,85,0.00,,,0.00,,2013-04-04 10:04:00,
2013-04-04 05:12:00,28.0,24.0,30.22,ESE,122,3.0,6.0,85,0.00,,,0.00,,2013-04-04 10:12:00,
2013-04-04 05:23:00,28.0,24.0,30.22,East,91,3.0,6.0,85,0.00,,,0.00,,2013-04-04 10:23:00,
2013-04-04 05:33:00,28.0,24.0,30.21,East,98,2.0,5.0,85,0.00,,,0.00,,2013-04-04 10:33:00,
2013-04-04 05:42:00,28.0,24.0,30.21,East,98,2.0,5.0,85,0.00,,,0.00,,2013-04-04 10:42:00,
2013-04-04 05:53:00,28.0,24.0,30.21,ESE,108,2.0,5.0,86,0.00,,,0.00,,2013-04-04 10:53:00,
2013-04-04 06:02:00,28.0,25.0,30.21,East,80,0.0,0.0,87,0.00,,,0.00,,2013-04-04 11:02:00,
2013-04-04 06:12:00,28.0,25.0,30.21,East,80,0.0,0.0,87,0.00,,,0.00,,2013-04-04 11:12:00,
2013-04-04 06:22:00,27.0,23.0,30.21,East,80,0.0,0.0,86,0.00,,,0.00,,2013-04-04 11:22:00,
2013-04-04 06:33:00,27.0,24.0,30.22,East,80,0.0,0.0,87,0.00,,,0.00,,2013-04-04 11:33:00,
2013-04-04 06:42:00,27.0,24.0,30.22,East,80,0.0,0.0,87,0.00,,,0.00,,2013-04-04 11:42:00,
2013-04-04 06:53:00,27.0,24.0,30.22,East,80,0.0,0.0,87,0.00,,,0.00,,2013-04-04 11:53:00,
2013-04-04 07:02:00,27.0,24.0,30.22,East,80,0.0,0.0,87,0.00,,,0.00,,2013-04-04 12:02:00,
2013-04-04 07:12:00,27.0,24.0,30.22,East,80,0.0,0.0,87,0.00,,,0.00,,2013-04-04 12:12:00,
2013-04-04 07:22:00,27.0,24.0,30.22,South,169,0.0,3.0,87,0.00,,,0.00,,2013-04-04 12:22:00,
2013-04-04 07:32:00,28.0,25.0,30.22,South,169,0.0,0.0,88,0.00,,,0.00,,2013-04-04 12:32:00,
2013-04-04 07:43:00,28.0,25.0,30.22,South,169,0.0,0.0,88,0.00,,,0.00,,2013-04-04 12:43:00,
2013-04-04 07:52:00,29.0,26.0,30.22,SSE,160,0.0,3.0,88,0.00,,,0.00,,2013-04-04 12:52:00,
2013-04-04 08:02:00,31.0,27.0,30.22,SSE,150,0.0,6.0,84,0.00,,,0.00,,2013-04-04 13:02:00,
2013-04-04 08:12:00,31.0,27.0,30.22,SSE,150,0.0,6.0,84,0.00,,,0.00,,2013-04-04 13:12:00,
2013-04-04 08:22:00,33.0,28.0,30.21,SSE,150,0.0,0.0,83,0.00,,,0.00,,2013-04-04 13:22:00,
2013-04-04 08:32:00,37.0,28.0,30.21,South,176,1.0,10.0,70,0.00,,,0.00,,2013-04-04 13:32:00,
2013-04-04 08:42:00,37.0,28.0,30.21,South,176,1.0,10.0,70,0.00,,,0.00,,2013-04-04 13:42:00,
2013-04-04 08:52:00,38.0,28.0,30.21,South,179,6.0,10.0,68,0.00,,,0.00,,2013-04-04 13:52:00,
2013-04-04 09:03:00,42.0,28.0,30.20,South,169,7.0,13.0,57,0.00,,,0.00,,2013-04-04 14:03:00,
2013-04-04 09:12:00,42.0,28.0,30.20,South,169,7.0,13.0,57,0.00,,,0.00,,2013-04-04 14:12:00,
2013-04-04 09:22:00,43.0,29.0,30.19,South,180,9.0,13.0,57,0.00,,,0.00,,2013-04-04 14:22:00,
2013-04-04 09:32:00,45.0,28.0,30.19,South,169,6.0,14.0,51,0.00,,,0.00,,2013-04-04 14:32:00,
2013-04-04 09:42:00,45.0,28.0,30.19,South,169,6.0,14.0,51,0.00,,,0.00,,2013-04-04 14:42:00,
2013-04-04 09:52:00,46.0,25.0,30.18,SSW,203,9.0,15.0,44,0.00,,,0.00,,2013-04-04 14:52:00,
2013-04-04 10:02:00,47.0,24.0,30.18,South,185,9.0,16.0,40,0.00,,,0.00,,2013-04-04 15:02:00,
2013-04-04 10:12:00,47.0,24.0,30.18,South,185,9.0,16.0,40,0.00,,,0.00,,2013-04-04 15:12:00,
2013-04-04 10:23:00,48.0,25.0,30.17,SW,215,8.0,14.0,40,0.00,,,0.00,,2013-04-04 15:23:00,
2013-04-04 10:33:00,49.0,25.0,30.17,SSW,208,8.0,16.0,38,0.00,,,0.00,,2013-04-04 15:33:00,
2013-04-04 10:43:00,49.0,25.0,30.17,SSW,208,8.0,16.0,38,0.00,,,0.00,,2013-04-04 15:43:00,
2013-04-04 10:53:00,49.0,23.0,30.17,SW,218,7.0,15.0,36,0.00,,,0.00,,2013-04-04 15:53:00,
2013-04-04 11:03:00,50.0,24.0,30.16,SE,136,4.0,15.0,36,0.00,,,0.00,,2013-04-04 16:03:00,
2013-04-04 11:12:00,50.0,24.0,30.16,SE,136,4.0,15.0,36,0.00,,,0.00,,2013-04-04 16:12:00,
2013-04-04 11:32:00,49.0,24.0,30.15,NNW,329,0.0,13.0,37,0.00,,,0.00,,2013-04-04 16:32:00,
2013-04-04 11:42:00,49.0,24.0,30.15,NNW,329,0.0,13.0,37,0.00,,,0.00,,2013-04-04 16:42:00,
2013-04-04 11:53:00,51.0,25.0,30.14,West,274,8.0,16.0,36,0.00,,,0.00,,2013-04-04 16:53:00,
2013-04-04 12:03:00,50.0,23.0,30.14,WNW,292,7.0,18.0,35,0.00,,,0.00,,2013-04-04 17:03:00,
2013-04-04 12:13:00,50.0,23.0,30.14,WNW,292,7.0,18.0,35,0.00,,,0.00,,2013-04-04 17:13:00,
2013-04-04 12:22:00,50.0,24.0,30.14,WNW,298,7.0,16.0,36,0.00,,,0.00,,2013-04-04 17:22:00,
2013-04-04 12:33:00,52.0,25.0,30.12,South,183,5.0,15.0,34,0.00,,,0.00,,2013-04-04 17:33:00,
2013-04-04 12:42:00,52.0,25.0,30.12,South,183,5.0,15.0,34,0.00,,,0.00,,2013-04-04 17:42:00,
2013-04-04 12:52:00,53.0,25.0,30.12,WSW,247,7.0,12.0,34,0.00,,,0.00,,2013-04-04 17:52:00,
2013-04-04 13:02:00,53.0,24.0,30.11,WNW,287,7.0,12.0,32,0.00,,,0.00,,2013-04-04 18:02:00,
2013-04-04 13:12:00,53.0,24.0,30.11,WNW,287,7.0,12.0,32,0.00,,,0.00,,2013-04-04 18:12:00,
2013-04-04 13:22:00,54.0,25.0,30.11,SSE,162,7.0,13.0,32,0.00,,,0.00,,2013-04-04 18:22:00,
2013-04-04 13:32:00,53.0,24.0,30.10,WNW,291,12.0,16.0,32,0.00,,,0.00,,2013-04-04 18:32:00,
2013-04-04 13:43:00,53.0,24.0,30.10,WNW,291,12.0,16.0,32,0.00,,,0.00,,2013-04-04 18:43:00,
2013-04-04 13:52:00,54.0,26.0,30.09,WNW,284,7.0,15.0,33,0.00,,,0.00,,2013-04-04 18:52:00,
2013-04-04 14:02:00,56.0,27.0,30.09,WSW,242,6.0,14.0,32,0.00,,,0.00,,2013-04-04 19:02:00,
2013-04-04 14:12:00,56.0,27.0,30.09,WSW,242,6.0,14.0,32,0.00,,,0.00,,2013-04-04 19:12:00,
2013-04-04 14:22:00,56.0,24.0,30.08,South,179,9.0,16.0,29,0.00,,,0.00,,2013-04-04 19:22:00,
2013-04-04 14:32:00,56.0,25.0,30.07,WNW,297,10.0,15.0,30,0.00,,,0.00,,2013-04-04 19:32:00,
2013-04-04 14:42:00,56.0,25.0,30.07,WNW,297,10.0,15.0,30,0.00,,,0.00,,2013-04-04 19:42:00,
2013-04-04 14:52:00,56.0,25.0,30.07,NW,322,8.0,18.0,30,0.00,,,0.00,,2013-04-04 19:52:00,
2013-04-04 15:03:00,57.0,25.0,30.06,SSW,211,8.0,20.0,29,0.00,,,0.00,,2013-04-04 20:03:00,
2013-04-04 15:12:00,57.0,25.0,30.06,SSW,211,8.0,20.0,29,0.00,,,0.00,,2013-04-04 20:12:00,
2013-04-04 15:22:00,57.0,24.0,30.06,WNW,301,6.0,17.0,28,0.00,,,0.00,,2013-04-04 20:22:00,
2013-04-04 15:32:00,57.0,25.0,30.05,WSW,258,9.0,17.0,29,0.00,,,0.00,,2013-04-04 20:32:00,
2013-04-04 15:42:00,57.0,25.0,30.05,WSW,258,9.0,17.0,29,0.00,,,0.00,,2013-04-04 20:42:00,
2013-04-04 15:52:00,57.0,25.0,30.05,NW,309,12.0,16.0,29,0.00,,,0.00,,2013-04-04 20:52:00,
2013-04-04 16:02:00,58.0,25.0,30.04,SW,221,8.0,17.0,28,0.00,,,0.00,,2013-04-04 21:02:00,
2013-04-04 16:12:00,58.0,25.0,30.04,SW,221,8.0,17.0,28,0.00,,,0.00,,2013-04-04 21:12:00,
2013-04-04 16:22:00,58.0,25.0,30.04,WSW,254,10.0,20.0,28,0.00,,,0.00,,2013-04-04 21:22:00,
2013-04-04 16:32:00,59.0,26.0,30.03,WSW,237,10.0,18.0,28,0.00,,,0.00,,2013-04-04 21:32:00,
2013-04-04 16:43:00,59.0,26.0,30.03,WSW,237,10.0,18.0,28,0.00,,,0.00,,2013-04-04 21:43:00,
2013-04-04 16:52:00,58.0,25.0,30.03,WSW,250,9.0,17.0,28,0.00,,,0.00,,2013-04-04 21:52:00,
2013-04-04 17:03:00,59.0,26.0,30.03,West,260,12.0,17.0,28,0.00,,,0.00,,2013-04-04 22:03:00,
2013-04-04 17:12:00,59.0,26.0,30.03,West,260,12.0,17.0,28,0.00,,,0.00,,2013-04-04 22:12:00,
2013-04-04 17:23:00,59.0,26.0,30.03,WSW,241,6.0,15.0,28,0.00,,,0.00,,2013-04-04 22:23:00,
2013-04-04 17:33:00,59.0,27.0,30.02,West,266,6.0,20.0,29,0.00,,,0.00,,2013-04-04 22:33:00,
2013-04-04 17:42:00,59.0,27.0,30.02,West,266,6.0,20.0,29,0.00,,,0.00,,2013-04-04 22:42:00,
2013-04-04 17:53:00,59.0,28.0,30.02,SSW,208,5.0,15.0,30,0.00,,,0.00,,2013-04-04 22:53:00,
2013-04-04 18:02:00,59.0,27.0,30.01,WSW,240,8.0,17.0,29,0.00,,,0.00,,2013-04-04 23:02:00,
2013-04-04 18:12:00,59.0,27.0,30.01,WSW,240,8.0,17.0,29,0.00,,,0.00,,2013-04-04 23:12:00,
2013-04-04 18:22:00,59.0,28.0,30.02,WSW,248,2.0,16.0,30,0.00,,,0.00,,2013-04-04 23:22:00,
2013-04-04 18:32:00,59.0,28.0,30.02,WSW,254,9.0,14.0,30,0.00,,,0.00,,2013-04-04 23:32:00,
2013-04-04 18:42:00,59.0,28.0,30.02,WSW,254,9.0,14.0,30,0.00,,,0.00,,2013-04-04 23:42:00,
2013-04-04 18:52:00,58.0,26.0,30.02,West,274,12.0,17.0,29,0.00,,,0.00,,2013-04-04 23:52:00,
2013-04-04 19:02:00,58.0,27.0,30.02,WSW,258,10.0,16.0,30,0.00,,,0.00,,2013-04-05 00:02:00,
2013-04-04 19:12:00,58.0,27.0,30.02,WSW,258,10.0,16.0,30,0.00,,,0.00,,2013-04-05 00:12:00,
2013-04-04 19:22:00,58.0,28.0,30.01,WSW,237,4.0,14.0,31,0.00,,,0.00,,2013-04-05 00:22:00,
2013-04-04 19:32:00,56.0,29.0,30.01,SW,216,3.0,9.0,35,0.00,,,0.00,,2013-04-05 00:32:00,
2013-04-04 19:42:00,56.0,29.0,30.01,SW,216,3.0,9.0,35,0.00,,,0.00,,2013-04-05 00:42:00,
2013-04-04 19:52:00,55.0,29.0,30.01,SW,227,3.0,6.0,36,0.00,,,0.00,,2013-04-05 00:52:00,
2013-04-04 20:02:00,53.0,29.0,30.01,SW,235,2.0,3.0,39,0.00,,,0.00,,2013-04-05 01:02:00,
2013-04-04 20:12:00,53.0,29.0,30.01,SW,235,2.0,3.0,39,0.00,,,0.00,,2013-04-05 01:12:00,
2013-04-04 20:22:00,53.0,29.0,30.01,SW,217,0.0,5.0,39,0.00,,,0.00,,2013-04-05 01:22:00,
2013-04-04 20:32:00,52.0,28.0,30.00,SW,217,0.0,0.0,40,0.00,,,0.00,,2013-04-05 01:32:00,
2013-04-04 20:42:00,52.0,28.0,30.00,SW,217,0.0,0.0,40,0.00,,,0.00,,2013-04-05 01:42:00,
2013-04-04 20:52:00,51.0,29.0,30.00,WSW,258,0.0,5.0,42,0.00,,,0.00,,2013-04-05 01:52:00,
2013-04-04 21:03:00,49.0,28.0,30.01,SSW,213,0.0,0.0,44,0.00,,,0.00,,2013-04-05 02:03:00,
2013-04-04 21:12:00,49.0,28.0,30.01,SSW,213,0.0,0.0,44,0.00,,,0.00,,2013-04-05 02:12:00,
2013-04-04 21:22:00,49.0,28.0,30.01,SSW,213,0.0,0.0,44,0.00,,,0.00,,2013-04-05 02:22:00,
2013-04-04 21:32:00,48.0,29.0,30.02,SSW,213,0.0,0.0,47,0.00,,,0.00,,2013-04-05 02:32:00,
2013-04-04 21:42:00,48.0,29.0,30.02,SSW,213,0.0,0.0,47,0.00,,,0.00,,2013-04-05 02:42:00,
2013-04-04 21:52:00,47.0,29.0,30.02,SSW,213,0.0,0.0,49,0.00,,,0.00,,2013-04-05 02:52:00,
2013-04-04 22:02:00,45.0,28.0,30.01,SSW,213,0.0,0.0,51,0.00,,,0.00,,2013-04-05 03:02:00,
2013-04-04 22:12:00,45.0,28.0,30.01,SSW,213,0.0,0.0,51,0.00,,,0.00,,2013-04-05 03:12:00,
2013-04-04 22:22:00,44.0,28.0,30.01,SSW,213,0.0,0.0,53,0.00,,,0.00,,2013-04-05 03:22:00,
2013-04-04 22:32:00,44.0,28.0,30.01,SSW,213,0.0,0.0,54,0.00,,,0.00,,2013-04-05 03:32:00,
2013-04-04 22:43:00,44.0,28.0,30.01,SSW,213,0.0,0.0,54,0.00,,,0.00,,2013-04-05 03:43:00,
2013-04-04 22:53:00,45.0,28.0,30.01,WSW,238,5.0,7.0,52,0.00,,,0.00,,2013-04-05 03:53:00,
2013-04-04 23:02:00,46.0,28.0,30.01,SW,232,0.0,6.0,50,0.00,,,0.00,,2013-04-05 04:02:00,
2013-04-04 23:12:00,46.0,28.0,30.01,SW,232,0.0,6.0,50,0.00,,,0.00,,2013-04-05 04:12:00,
2013-04-04 23:22:00,47.0,29.0,30.01,South,191,2.0,6.0,50,0.00,,,0.00,,2013-04-05 04:22:00,
2013-04-04 23:32:00,47.0,29.0,30.01,WSW,247,5.0,10.0,49,0.00,,,0.00,,2013-04-05 04:32:00,
2013-04-04 23:42:00,47.0,29.0,30.01,WSW,247,5.0,10.0,49,0.00,,,0.00,,2013-04-05 04:42:00,
2013-04-04 23:52:00,47.0,29.0,30.01,WSW,247,5.0,10.0,49,0.00,,,0.00,,2013-04-05 04:52:00,